ATLAS 5 CENTAUR R/B, 42916

Orbit data source: Space-Track

ATLAS 5 CENTAUR R/B, 42916 is space debris in HEO originally from a launch on Fri, 18 Aug 2017 UTC launched from the Air Force Eastern Test Range (AFETR). Debris objects in space refer to the collection of defunct objects orbiting the Earth. Examples of debris include non-operational satellites, rocket bodies, and fragments generated from explosions, collisions, or faulty payload assembly.

Loading next visibility...
Identifier
42916, 2017-047B
Orbit
HEO
Country
Flag of USUS
Related business
Flag of USUnited Launch Alliance/Lockheed Martin (US)
Manufacturer
ULA Decatur
Mission
Spacecraft
Bus & Motor
CENTAUR SEC, RL10C-1
Mass
~2,020 kg wet, 2,020 kg dry
Launch date (UTC)
2017-08-18 (8 years ago)
Launch vehicle
Unknown
Launch site
Air Force Eastern Test Range (AFETR)
Object type
Payload
Rocket body
Debris
Shape & HBR
Cyl + 1 Nozzle, 5.8 m
Radar Cross Section
32.260 m², Large (>1 m²)

Expand to show TLE details & history
Last TLE update: 2 days ago

TLE from 2 days ago
0 ATLAS 5 CENTAUR R/B
1 42916U 17047B   25339.79620148 -.00000164  00000-0  00000-0 0  9992
2 42916  25.2895 228.9209 5874668 235.2899  54.8832  2.06618653 62677
Epoch: 2025-12-05T19:06Z
TLE epoch observation values (Epoch: 2025-12-05T19:06:31.807Z)
Latitude
0.00008°
Longitude
-132.45066°
Altitude
19,295.25 km
Speed
3.968 km/s
True Right ascension
15h 16m 03s
True Declination
0° 00' 00"
Sunlit
Object was in daylight at epoch
Visualization orbit readout
Latitude
Unknown
Longitude
Unknown
Altitude
Unknown
Speed
Unknown
Apparent Right ascension
Unknown
Apparent Declination
Unknown
Sunlit
N/A
Visualization observer readout
Local Sidereal Time
06:38:30
Azimuth
Unknown
Elevation
Unknown
Doppler factor
Unknown
Orbital elements
Apogee altitude
34,961.412 km
Perigee altitude
4,364.725 km
Semi-major axis
26,041.205 km
Eccentricity
0.58747
Inclination
25.2895°
RAAN
228.9209°
Arg. of periapsis
235.2899°
True anomaly
124.78004°
Mean anomaly
54.8832°
Eccentric anomaly
88.53151°
Mean motion
0.51648 °/min
Orbital period
697.03 mins
BSTAR
0
Loading maneuver chart data...
Computing Atmospheric mass density...
Loading historical data...
Loading historical data...
Loading historical data...
Loading historical data...
Loading historical data...
Loading historical data...
Loading historical data...
Other satellites on launch #47 in the year 2017 (2017-08-18 UTC)

Documentation

Showing up to 5 results
|